N777BS KEYW-TJVQ

Flight info

Callsign N777BS
Flight time N/A
Altitude 370
Route FUNDI COQUI FORST BOOZY CHUMA SJU
Aircraft STAR/L-SDFGRY/C

Departure

Time 2026-05-06 19:41
Airport Key West International Airport (KEYW)

Arrival

Time N/A
Airport Antonio Rivera Rodriguez Airport (TJVQ)
Time Latitude Longitude Altitude Speed Heading
2026-05-06 19:29 24.55407 -81.75562 5 ft 0 kts 88°
2026-05-06 19:36 24.55408 -81.75555 5 ft 6 kts 88°
2026-05-06 19:36 24.55474 -81.75519 5 ft 14 kts
2026-05-06 19:37 24.55529 -81.75615 5 ft 26 kts 269°
2026-05-06 19:37 24.55527 -81.75836 5 ft 25 kts 270°
2026-05-06 19:37 24.55525 -81.75987 5 ft 21 kts 268°
2026-05-06 19:37 24.55524 -81.76147 4 ft 22 kts 269°
2026-05-06 19:38 24.55521 -81.76350 4 ft 19 kts 270°
2026-05-06 19:38 24.55521 -81.76378 4 ft 0 kts 270°
2026-05-06 19:38 24.55521 -81.76442 4 ft 19 kts 270°
2026-05-06 19:39 24.55519 -81.76595 4 ft 14 kts 269°
2026-05-06 19:39 24.55590 -81.76664 3 ft 19 kts
2026-05-06 19:39 24.55607 -81.76600 3 ft 0 kts 95°
2026-05-06 19:40 24.55608 -81.76436 3 ft 44 kts 90°
2026-05-06 19:40 24.55613 -81.75938 5 ft 85 kts 89°
2026-05-06 19:40 24.55623 -81.75127 78 ft 121 kts 91°
2026-05-06 19:40 24.55537 -81.74155 483 ft 134 kts 115°
2026-05-06 19:41 24.54889 -81.73465 1139 ft 135 kts 152°
2026-05-06 19:41 24.54024 -81.72978 1726 ft 137 kts 141°
2026-05-06 19:41 24.53310 -81.72287 2318 ft 139 kts 137°
2026-05-06 19:41 24.52595 -81.71554 2873 ft 141 kts 136°
2026-05-06 19:42 24.51892 -81.70790 3405 ft 144 kts 135°
2026-05-06 19:42 24.51185 -81.70001 3970 ft 145 kts 134°
2026-05-06 19:42 24.50535 -81.69158 4555 ft 145 kts 129°
2026-05-06 19:42 24.49922 -81.68276 5130 ft 145 kts 130°
2026-05-06 19:43 24.49301 -81.67429 5709 ft 144 kts 131°
2026-05-06 19:43 24.48658 -81.66588 6297 ft 144 kts 131°
2026-05-06 19:43 24.48031 -81.65742 6852 ft 145 kts 129°
2026-05-06 19:43 24.47405 -81.64889 7381 ft 147 kts 128°
2026-05-06 19:44 24.46758 -81.64008 7916 ft 150 kts 128°
2026-05-06 19:44 24.46095 -81.63112 8469 ft 152 kts 127°
2026-05-06 19:44 24.45423 -81.62206 9039 ft 154 kts 127°
2026-05-06 19:44 24.44744 -81.61289 9611 ft 156 kts 126°
2026-05-06 19:45 24.44056 -81.60359 10175 ft 158 kts 126°
2026-05-06 19:45 24.43324 -81.59364 10532 ft 175 kts 126°
2026-05-06 19:45 24.42551 -81.58323 11073 ft 176 kts 126°
2026-05-06 19:45 24.41775 -81.57283 11651 ft 176 kts 125°
2026-05-06 19:46 24.41006 -81.56241 12240 ft 176 kts 124°
2026-05-06 19:46 24.40235 -81.55196 12805 ft 176 kts 123°
2026-05-06 19:46 24.39465 -81.54158 13400 ft 176 kts 123°
2026-05-06 19:46 24.38692 -81.53117 13972 ft 176 kts 123°
2026-05-06 19:47 24.37919 -81.52070 14467 ft 177 kts 123°
2026-05-06 19:47 24.37139 -81.51015 14958 ft 178 kts 123°
2026-05-06 19:47 24.36360 -81.49969 15439 ft 180 kts 123°
2026-05-06 19:47 24.35565 -81.48899 15927 ft 181 kts 123°
2026-05-06 19:48 24.34758 -81.47809 16444 ft 183 kts 123°
2026-05-06 19:48 24.33960 -81.46733 17004 ft 184 kts 123°
2026-05-06 19:48 24.33150 -81.45645 17554 ft 186 kts 123°
2026-05-06 19:48 24.32325 -81.44533 18098 ft 189 kts 124°
2026-05-06 19:49 24.31489 -81.43406 18594 ft 192 kts 124°
2026-05-06 19:49 24.30639 -81.42262 19066 ft 194 kts 124°
2026-05-06 19:49 24.29781 -81.41109 19537 ft 196 kts 124°
2026-05-06 19:49 24.28910 -81.39937 20008 ft 198 kts 124°
2026-05-06 19:50 24.28038 -81.38763 20470 ft 201 kts 125°
2026-05-06 19:50 24.27137 -81.37549 20784 ft 213 kts 125°
2026-05-06 19:50 24.26184 -81.36270 21151 ft 219 kts 126°
2026-05-06 19:50 24.25216 -81.34973 21606 ft 221 kts 126°
2026-05-06 19:51 24.24234 -81.33650 22077 ft 223 kts 126°
2026-05-06 19:51 24.23250 -81.32327 22537 ft 225 kts 126°
2026-05-06 19:51 24.22255 -81.30992 22994 ft 227 kts 126°
2026-05-06 19:51 24.21265 -81.29663 23438 ft 230 kts 126°
2026-05-06 19:52 24.20251 -81.28300 23847 ft 232 kts 127°
2026-05-06 19:52 24.19228 -81.26929 24219 ft 233 kts 127°
2026-05-06 19:52 24.18197 -81.25545 24593 ft 235 kts 127°
2026-05-06 19:52 24.17161 -81.24154 24963 ft 237 kts 127°
2026-05-06 19:53 24.16117 -81.22755 25325 ft 238 kts 127°
2026-05-06 19:53 24.15062 -81.21340 25696 ft 240 kts 127°
2026-05-06 19:53 24.14000 -81.19918 26054 ft 241 kts 128°
2026-05-06 19:53 24.12949 -81.18511 26412 ft 242 kts 127°
2026-05-06 19:54 24.11884 -81.17085 26774 ft 243 kts 127°
2026-05-06 19:54 24.10814 -81.15650 27108 ft 244 kts 128°
2026-05-06 19:54 24.09737 -81.14208 27436 ft 246 kts 128°
2026-05-06 19:54 24.08635 -81.12735 27761 ft 247 kts 128°
2026-05-06 19:55 24.07557 -81.11291 28076 ft 249 kts 128°
2026-05-06 19:55 24.06458 -81.09822 28388 ft 250 kts 128°
2026-05-06 19:55 24.05348 -81.08339 28698 ft 252 kts 128°
2026-05-06 19:55 24.04233 -81.06848 29001 ft 253 kts 129°
2026-05-06 19:56 24.03115 -81.05354 29295 ft 255 kts 129°
2026-05-06 19:56 24.01987 -81.03847 29583 ft 256 kts 129°
2026-05-06 19:56 24.00853 -81.02333 29857 ft 257 kts 129°
2026-05-06 19:56 23.99858 -81.00742 30094 ft 257 kts 110°
2026-05-06 19:57 23.99406 -80.98841 30304 ft 256 kts 97°
2026-05-06 19:57 23.99120 -80.96944 30501 ft 257 kts 95°
2026-05-06 19:57 23.98815 -80.95016 30703 ft 259 kts 100°
2026-05-06 19:57 23.98390 -80.93089 30899 ft 261 kts 100°
2026-05-06 19:58 23.98022 -80.91148 31092 ft 261 kts 98°
2026-05-06 19:58 23.97645 -80.89198 31302 ft 262 kts 99°
2026-05-06 19:58 23.97250 -80.87251 31482 ft 263 kts 99°
2026-05-06 19:58 23.96868 -80.85292 31648 ft 264 kts 98°
2026-05-06 19:59 23.96480 -80.83318 31817 ft 266 kts 99°
2026-05-06 19:59 23.96085 -80.81336 31975 ft 267 kts 98°
2026-05-06 19:59 23.95693 -80.79350 32129 ft 268 kts 98°
2026-05-06 19:59 23.95304 -80.77379 32276 ft 269 kts 98°
2026-05-06 20:00 23.94906 -80.75372 32411 ft 271 kts 98°
2026-05-06 20:00 23.94506 -80.73361 32554 ft 271 kts 98°
2026-05-06 20:00 23.94106 -80.71337 32680 ft 272 kts 98°
2026-05-06 20:00 23.93704 -80.69313 32818 ft 273 kts 98°
2026-05-06 20:01 23.93299 -80.67277 32945 ft 274 kts 98°
2026-05-06 20:01 23.92894 -80.65241 33068 ft 275 kts 98°
2026-05-06 20:01 23.92488 -80.63199 33181 ft 276 kts 98°
2026-05-06 20:01 23.92080 -80.61152 33295 ft 276 kts 98°
2026-05-06 20:02 23.91670 -80.59091 33400 ft 277 kts 99°
2026-05-06 20:02 23.91257 -80.57025 33499 ft 278 kts 99°
2026-05-06 20:02 23.90845 -80.54959 33598 ft 279 kts 99°
2026-05-06 20:02 23.90430 -80.52888 33707 ft 279 kts 98°
2026-05-06 20:03 23.90022 -80.50842 33802 ft 279 kts 98°
2026-05-06 20:03 23.89604 -80.48741 33889 ft 280 kts 98°
2026-05-06 20:03 23.89186 -80.46661 33972 ft 281 kts 98°
2026-05-06 20:03 23.88767 -80.44570 34051 ft 281 kts 98°
2026-05-06 20:04 23.88354 -80.42504 34120 ft 282 kts 98°
2026-05-06 20:04 23.87932 -80.40406 34190 ft 282 kts 98°
2026-05-06 20:04 23.87511 -80.38306 34260 ft 282 kts 98°
2026-05-06 20:04 23.87090 -80.36209 34379 ft 283 kts 98°
2026-05-06 20:05 23.86667 -80.34107 34493 ft 284 kts 98°
2026-05-06 20:05 23.86242 -80.31996 34593 ft 284 kts 98°
2026-05-06 20:05 23.85822 -80.29905 34687 ft 285 kts 98°
2026-05-06 20:05 23.85396 -80.27792 34777 ft 285 kts 98°
2026-05-06 20:06 23.84969 -80.25677 34871 ft 285 kts 98°
2026-05-06 20:06 23.84541 -80.23553 34965 ft 286 kts 98°
2026-05-06 20:06 23.84111 -80.21427 35052 ft 286 kts 98°
2026-05-06 20:06 23.83682 -80.19304 35138 ft 287 kts 98°
2026-05-06 20:07 23.83252 -80.17175 35223 ft 287 kts 98°
2026-05-06 20:07 23.82819 -80.15049 35328 ft 287 kts 98°
2026-05-06 20:07 23.82392 -80.12925 35414 ft 287 kts 98°
2026-05-06 20:07 23.81960 -80.10791 35491 ft 287 kts 98°
2026-05-06 20:08 23.81526 -80.08663 35565 ft 288 kts 98°
2026-05-06 20:08 23.81093 -80.06524 35638 ft 288 kts 98°
2026-05-06 20:08 23.80659 -80.04388 35708 ft 289 kts 98°
2026-05-06 20:08 23.80224 -80.02248 35777 ft 289 kts 98°
2026-05-06 20:09 23.79787 -80.00101 35841 ft 289 kts 98°
2026-05-06 20:09 23.79350 -79.97954 35905 ft 290 kts 98°
2026-05-06 20:09 23.78911 -79.95802 35969 ft 290 kts 98°
2026-05-06 20:09 23.78473 -79.93652 36030 ft 290 kts 98°
2026-05-06 20:10 23.78034 -79.91501 36083 ft 291 kts 98°
2026-05-06 20:10 23.77600 -79.89373 36139 ft 291 kts 98°
2026-05-06 20:10 23.77159 -79.87217 36197 ft 291 kts 98°
2026-05-06 20:10 23.76717 -79.85054 36252 ft 292 kts 98°
2026-05-06 20:11 23.76274 -79.82887 36306 ft 292 kts 98°
2026-05-06 20:11 23.75831 -79.80726 36357 ft 292 kts 98°
2026-05-06 20:11 23.75385 -79.78560 36419 ft 292 kts 98°
2026-05-06 20:11 23.74944 -79.76400 36475 ft 292 kts 98°
2026-05-06 20:12 23.74502 -79.74239 36521 ft 292 kts 98°
2026-05-06 20:12 23.74206 -79.72806 36550 ft 292 kts 98°
2026-05-06 20:12 23.73759 -79.70636 36594 ft 293 kts 98°
2026-05-06 20:12 23.73313 -79.68461 36642 ft 293 kts 98°
2026-05-06 20:13 23.72865 -79.66288 36678 ft 293 kts 98°
2026-05-06 20:13 23.72418 -79.64119 36718 ft 293 kts 98°
2026-05-06 20:13 23.71971 -79.61948 36761 ft 293 kts 98°
2026-05-06 20:13 23.71526 -79.59800 36916 ft 288 kts 98°
2026-05-06 20:14 23.71088 -79.57667 36987 ft 287 kts 98°
2026-05-06 20:14 23.70649 -79.55541 37021 ft 288 kts 98°
2026-05-06 20:14 23.70212 -79.53433 37035 ft 289 kts 98°
2026-05-06 20:14 23.69768 -79.51282 37044 ft 291 kts 98°
2026-05-06 20:15 23.69321 -79.49127 37052 ft 292 kts 98°
2026-05-06 20:15 23.68872 -79.46961 37050 ft 294 kts 98°
2026-05-06 20:15 23.68421 -79.44784 37048 ft 295 kts 98°
2026-05-06 20:15 23.67967 -79.42599 37059 ft 296 kts 98°
2026-05-06 20:16 23.67509 -79.40399 37052 ft 297 kts 98°
2026-05-06 20:16 23.67055 -79.38201 37053 ft 298 kts 98°
2026-05-06 20:16 23.66594 -79.35987 37053 ft 299 kts 98°
2026-05-06 20:16 23.66132 -79.33774 37047 ft 300 kts 98°
2026-05-06 20:17 23.65671 -79.31555 37047 ft 300 kts 98°
2026-05-06 20:17 23.65206 -79.29325 37046 ft 301 kts 98°
2026-05-06 20:17 23.64276 -79.24868 37052 ft 302 kts 98°
2026-05-06 20:18 23.63340 -79.20392 37052 ft 303 kts 98°
2026-05-06 20:18 23.62396 -79.15882 37049 ft 307 kts 98°
2026-05-06 20:19 23.61444 -79.11343 37046 ft 307 kts 98°
2026-05-06 20:19 23.60489 -79.06792 37046 ft 308 kts 98°
2026-05-06 20:20 23.59532 -79.02239 37051 ft 308 kts 97°
2026-05-06 20:20 23.58578 -78.97714 37052 ft 308 kts 98°
2026-05-06 20:21 23.57620 -78.93167 37049 ft 308 kts 98°
2026-05-06 20:21 23.56658 -78.88613 37047 ft 308 kts 98°
2026-05-06 20:22 23.55695 -78.84064 37051 ft 308 kts 98°
2026-05-06 20:22 23.54733 -78.79523 37052 ft 308 kts 98°
2026-05-06 20:23 23.53767 -78.74973 37053 ft 308 kts 98°
2026-05-06 20:23 23.52800 -78.70423 37052 ft 308 kts 98°
2026-05-06 20:24 23.51830 -78.65873 37052 ft 308 kts 97°
2026-05-06 20:24 23.50867 -78.61347 37047 ft 309 kts 97°
2026-05-06 20:25 23.49894 -78.56791 37049 ft 309 kts 97°
2026-05-06 20:25 23.48921 -78.52238 37048 ft 309 kts 97°
2026-05-06 20:26 23.47945 -78.47685 37046 ft 309 kts 97°
2026-05-06 20:26 23.46969 -78.43133 37048 ft 308 kts 97°
2026-05-06 20:27 23.45995 -78.38595 37052 ft 308 kts 97°
2026-05-06 20:27 23.45014 -78.34037 37051 ft 308 kts 97°
2026-05-06 20:28 23.44034 -78.29489 37047 ft 309 kts 97°
2026-05-06 20:28 23.43058 -78.24962 37048 ft 309 kts 97°
2026-05-06 20:29 23.42073 -78.20406 37049 ft 309 kts 97°
2026-05-06 20:29 23.41087 -78.15848 37048 ft 310 kts 97°
2026-05-06 20:30 23.39601 -78.08994 37050 ft 310 kts 98°
2026-05-06 20:31 23.38609 -78.04426 37049 ft 310 kts 98°
2026-05-06 20:31 23.37614 -77.99854 37050 ft 310 kts 98°
2026-05-06 20:32 23.36625 -77.95313 37055 ft 310 kts 97°
2026-05-06 20:32 23.35628 -77.90737 37052 ft 310 kts 97°
2026-05-06 20:33 23.34628 -77.86169 37050 ft 310 kts 97°
2026-05-06 20:33 23.33629 -77.81601 37048 ft 310 kts 97°
2026-05-06 20:34 23.32627 -77.77031 37045 ft 310 kts 97°
2026-05-06 20:34 23.31624 -77.72461 37047 ft 310 kts 97°
2026-05-06 20:35 23.30621 -77.67895 37050 ft 310 kts 97°
2026-05-06 20:35 23.29616 -77.63329 37048 ft 310 kts 97°
2026-05-06 20:36 23.28053 -77.58897 37060 ft 318 kts 113°
2026-05-06 20:36 23.26100 -77.54632 37053 ft 317 kts 110°
2026-05-06 20:37 23.24137 -77.50322 37044 ft 317 kts 110°
2026-05-06 20:37 23.22193 -77.46013 37047 ft 317 kts 110°
2026-05-06 20:38 23.20257 -77.41713 37048 ft 317 kts 111°
2026-05-06 20:38 23.18317 -77.37421 37048 ft 316 kts 110°
2026-05-06 20:39 23.16387 -77.33155 37048 ft 316 kts 110°
2026-05-06 20:39 23.14437 -77.28846 37050 ft 315 kts 111°
2026-05-06 20:40 23.12514 -77.24602 37053 ft 316 kts 111°
2026-05-06 20:40 23.10564 -77.20306 37054 ft 318 kts 110°
2026-05-06 20:41 23.08607 -77.15993 37050 ft 319 kts 110°
2026-05-06 20:41 23.06644 -77.11669 37050 ft 319 kts 110°
2026-05-06 20:42 23.04679 -77.07349 37051 ft 319 kts 110°
2026-05-06 20:42 23.02712 -77.03026 37050 ft 319 kts 110°
2026-05-06 20:43 23.00747 -76.98712 37048 ft 319 kts 110°
2026-05-06 20:43 22.98779 -76.94396 37048 ft 319 kts 110°
2026-05-06 20:44 22.96813 -76.90088 37046 ft 319 kts 110°
2026-05-06 20:44 22.94861 -76.85814 37056 ft 319 kts 110°
2026-05-06 20:45 22.92891 -76.81502 37054 ft 319 kts 110°
2026-05-06 20:45 22.90915 -76.77184 37052 ft 319 kts 110°
2026-05-06 20:46 22.88940 -76.72872 37050 ft 319 kts 110°
2026-05-06 20:46 22.86966 -76.68563 37050 ft 319 kts 110°
2026-05-06 20:47 22.84994 -76.64266 37048 ft 318 kts 110°
2026-05-06 20:47 22.83037 -76.60002 37051 ft 318 kts 110°
2026-05-06 20:48 22.81066 -76.55713 37047 ft 317 kts 110°
2026-05-06 20:48 22.79097 -76.51431 37047 ft 317 kts 110°
2026-05-06 20:49 22.77130 -76.47159 37053 ft 317 kts 110°
2026-05-06 20:49 22.75158 -76.42878 37049 ft 317 kts 110°
2026-05-06 20:50 22.73191 -76.38612 37046 ft 317 kts 110°
2026-05-06 20:50 22.71232 -76.34369 37047 ft 316 kts 110°
2026-05-06 20:51 22.69263 -76.30105 37050 ft 316 kts 110°
2026-05-06 20:51 22.67292 -76.25842 37049 ft 316 kts 110°
2026-05-06 20:52 22.65321 -76.21581 37044 ft 316 kts 110°
2026-05-06 20:52 22.63346 -76.17318 37048 ft 316 kts 110°
2026-05-06 20:53 22.61372 -76.13061 37052 ft 316 kts 110°
2026-05-06 20:53 22.59414 -76.08836 37046 ft 316 kts 110°
2026-05-06 20:54 22.57438 -76.04580 37047 ft 316 kts 110°
2026-05-06 20:54 22.55462 -76.00330 37048 ft 316 kts 110°
2026-05-06 20:55 22.53488 -75.96084 37047 ft 316 kts 110°
2026-05-06 20:55 22.51513 -75.91842 37050 ft 315 kts 110°
2026-05-06 20:56 22.49538 -75.87604 37048 ft 315 kts 110°
2026-05-06 20:56 22.47565 -75.83370 37048 ft 315 kts 110°
2026-05-06 20:57 22.45591 -75.79139 37046 ft 315 kts 110°
2026-05-06 20:57 22.43616 -75.74912 37050 ft 315 kts 110°
2026-05-06 20:58 22.41640 -75.70685 37048 ft 315 kts 110°
2026-05-06 20:58 22.39677 -75.66489 37048 ft 315 kts 110°
2026-05-06 20:59 22.37700 -75.62266 37048 ft 315 kts 110°
2026-05-06 20:59 22.36055 -75.58758 37048 ft 315 kts 110°
2026-05-06 21:00 22.34077 -75.54538 37048 ft 315 kts 110°
2026-05-06 21:00 22.32102 -75.50331 37050 ft 315 kts 110°
2026-05-06 21:01 22.30119 -75.46108 37050 ft 315 kts 110°
2026-05-06 21:01 22.28134 -75.41889 37053 ft 314 kts 110°
2026-05-06 21:02 22.26156 -75.37680 37049 ft 314 kts 110°
2026-05-06 21:02 22.24182 -75.33490 37048 ft 314 kts 110°
2026-05-06 21:03 22.22198 -75.29282 37045 ft 315 kts 110°
2026-05-06 21:03 22.20215 -75.25077 37047 ft 314 kts 110°
2026-05-06 21:04 22.18225 -75.20861 37050 ft 314 kts 110°
2026-05-06 21:04 22.16249 -75.16680 37048 ft 314 kts 110°
2026-05-06 21:05 22.14264 -75.12482 37048 ft 314 kts 110°
2026-05-06 21:05 22.12275 -75.08279 37048 ft 314 kts 110°
2026-05-06 21:06 22.10378 -75.04056 37048 ft 309 kts 103°
2026-05-06 21:06 22.08811 -74.99735 37044 ft 311 kts 105°
2026-05-06 21:07 22.07210 -74.95414 37041 ft 310 kts 104°
2026-05-06 21:07 22.05593 -74.91105 37046 ft 309 kts 103°
2026-05-06 21:08 22.03979 -74.86801 37049 ft 309 kts 104°
2026-05-06 21:08 22.02381 -74.82527 37048 ft 310 kts 104°
2026-05-06 21:09 22.00770 -74.78226 37047 ft 309 kts 104°
2026-05-06 21:09 21.99159 -74.73932 37045 ft 309 kts 104°
2026-05-06 21:10 21.97552 -74.69649 37043 ft 308 kts 104°
2026-05-06 21:10 21.95941 -74.65362 37045 ft 308 kts 104°
2026-05-06 21:11 21.94328 -74.61071 37046 ft 308 kts 104°
2026-05-06 21:11 21.92725 -74.56814 37045 ft 309 kts 104°
2026-05-06 21:12 21.91111 -74.52528 37043 ft 309 kts 104°
2026-05-06 21:12 21.89495 -74.48242 37042 ft 309 kts 104°
2026-05-06 21:13 21.87879 -74.43960 37042 ft 308 kts 104°
2026-05-06 21:13 21.86259 -74.39673 37042 ft 309 kts 104°
2026-05-06 21:14 21.84639 -74.35387 37051 ft 309 kts 104°
2026-05-06 21:14 21.83025 -74.31118 37043 ft 310 kts 104°
2026-05-06 21:15 21.81399 -74.26830 37038 ft 310 kts 104°
2026-05-06 21:15 21.79771 -74.22536 37038 ft 310 kts 104°
2026-05-06 21:16 21.78142 -74.18240 37046 ft 310 kts 104°
2026-05-06 21:16 21.76511 -74.13948 37043 ft 310 kts 104°
2026-05-06 21:17 21.74877 -74.09649 37041 ft 310 kts 104°
2026-05-06 21:17 21.73254 -74.05383 37045 ft 310 kts 104°
2026-05-06 21:18 21.71618 -74.01088 37039 ft 310 kts 104°
2026-05-06 21:18 21.69984 -73.96801 37045 ft 310 kts 103°
2026-05-06 21:19 21.68346 -73.92509 37041 ft 310 kts 103°
2026-05-06 21:19 21.66707 -73.88216 37038 ft 310 kts 103°
2026-05-06 21:20 21.65071 -73.83935 37032 ft 310 kts 103°
2026-05-06 21:20 21.63444 -73.79682 37035 ft 309 kts 103°
2026-05-06 21:21 21.61807 -73.75409 37042 ft 309 kts 103°
2026-05-06 21:21 21.60170 -73.71136 37039 ft 309 kts 103°
2026-05-06 21:22 21.58531 -73.66862 37035 ft 309 kts 103°
2026-05-06 21:22 21.56889 -73.62589 37042 ft 309 kts 103°
2026-05-06 21:23 21.55248 -73.58317 37040 ft 309 kts 103°
2026-05-06 21:23 21.53605 -73.54044 37039 ft 309 kts 103°
2026-05-06 21:24 21.51964 -73.49781 37034 ft 309 kts 103°
2026-05-06 21:24 21.50328 -73.45535 37032 ft 309 kts 103°
2026-05-06 21:25 21.48686 -73.41276 37039 ft 309 kts 103°
2026-05-06 21:25 21.47043 -73.37019 37033 ft 309 kts 103°
2026-05-06 21:26 21.45396 -73.32755 37035 ft 309 kts 103°
2026-05-06 21:26 21.43748 -73.28496 37034 ft 309 kts 103°
2026-05-06 21:27 21.42099 -73.24230 37038 ft 309 kts 103°
2026-05-06 21:27 21.40444 -73.19960 37038 ft 309 kts 103°
2026-05-06 21:28 21.38792 -73.15698 37030 ft 309 kts 103°
2026-05-06 21:28 21.37140 -73.11442 37034 ft 309 kts 103°
2026-05-06 21:29 21.35488 -73.07187 37035 ft 309 kts 103°
2026-05-06 21:29 21.33833 -73.02929 37032 ft 309 kts 103°
2026-05-06 21:30 21.32186 -72.98696 37034 ft 309 kts 103°
2026-05-06 21:30 21.30528 -72.94439 37034 ft 309 kts 103°
2026-05-06 21:31 21.28870 -72.90179 37035 ft 310 kts 103°
2026-05-06 21:31 21.27208 -72.85923 37030 ft 310 kts 103°
2026-05-06 21:32 21.25544 -72.81660 37028 ft 310 kts 103°
2026-05-06 21:32 21.23048 -72.75274 37026 ft 310 kts 103°
2026-05-06 21:33 21.21383 -72.71017 37031 ft 310 kts 103°
2026-05-06 21:33 21.19716 -72.66760 37034 ft 309 kts 103°
2026-05-06 21:34 21.18049 -72.62506 37028 ft 309 kts 103°
2026-05-06 21:34 21.16298 -72.58283 37038 ft 313 kts 108°
2026-05-06 21:35 21.14432 -72.54084 37030 ft 312 kts 106°
2026-05-06 21:35 21.12564 -72.49923 37030 ft 311 kts 105°
2026-05-06 21:36 21.10690 -72.45730 37029 ft 312 kts 106°
2026-05-06 21:36 21.08823 -72.41543 37027 ft 312 kts 106°
2026-05-06 21:37 21.06950 -72.37352 37030 ft 312 kts 106°
2026-05-06 21:37 21.05078 -72.33168 37032 ft 312 kts 106°
2026-05-06 21:38 21.03202 -72.28978 37028 ft 312 kts 106°
2026-05-06 21:38 21.01324 -72.24788 37039 ft 312 kts 105°
2026-05-06 21:39 20.99448 -72.20599 37033 ft 312 kts 106°
2026-05-06 21:39 20.97563 -72.16402 37032 ft 312 kts 105°
2026-05-06 21:40 20.95691 -72.12234 37028 ft 312 kts 105°
2026-05-06 21:40 20.93811 -72.08050 37029 ft 312 kts 106°
2026-05-06 21:41 20.91919 -72.03845 37029 ft 312 kts 106°
2026-05-06 21:41 20.90035 -71.99659 37029 ft 313 kts 106°
2026-05-06 21:42 20.88145 -71.95465 37029 ft 313 kts 106°
2026-05-06 21:42 20.86251 -71.91265 37029 ft 314 kts 106°
2026-05-06 21:43 20.84368 -71.87091 37031 ft 314 kts 105°
2026-05-06 21:43 20.82471 -71.82892 37029 ft 314 kts 105°
2026-05-06 21:44 20.80572 -71.78688 37029 ft 314 kts 105°
2026-05-06 21:44 20.78671 -71.74487 37025 ft 314 kts 106°
2026-05-06 21:45 20.76772 -71.70292 37025 ft 313 kts 105°
2026-05-06 21:45 20.74495 -71.66293 37029 ft 325 kts 124°
2026-05-06 21:46 20.71351 -71.62813 37028 ft 328 kts 128°
2026-05-06 21:46 20.68093 -71.59393 37028 ft 328 kts 128°
2026-05-06 21:47 20.64835 -71.55977 37034 ft 328 kts 128°
2026-05-06 21:47 20.62112 -71.53111 37032 ft 328 kts 128°
2026-05-06 21:48 20.58871 -71.49727 37029 ft 328 kts 128°
2026-05-06 21:48 20.55699 -71.46258 37029 ft 327 kts 127°
2026-05-06 21:49 20.52476 -71.42815 37028 ft 327 kts 127°
2026-05-06 21:49 20.49279 -71.39363 37026 ft 327 kts 127°
2026-05-06 21:50 20.47805 -71.37559 37026 ft 315 kts 111°
2026-05-06 21:50 20.47053 -71.35479 37026 ft 290 kts 86°
2026-05-06 21:50 20.46951 -71.33383 37026 ft 286 kts 84°
2026-05-06 21:50 20.46388 -71.31285 37025 ft 298 kts 97°
2026-05-06 21:51 20.46122 -71.29196 37026 ft 277 kts 77°
2026-05-06 21:51 20.46202 -71.27158 37023 ft 274 kts 74°
2026-05-06 21:51 20.46373 -71.25141 37023 ft 273 kts 72°
2026-05-06 21:51 20.46427 -71.23092 37024 ft 287 kts 87°
2026-05-06 21:52 20.45704 -71.21031 37023 ft 310 kts 113°
2026-05-06 21:52 20.44345 -71.19184 37023 ft 319 kts 123°
2026-05-06 21:52 20.41326 -71.15719 37023 ft 323 kts 126°
2026-05-06 21:53 20.38183 -71.12275 37023 ft 325 kts 128°
2026-05-06 21:53 20.35006 -71.08867 37023 ft 316 kts 114°
2026-05-06 21:54 20.32968 -71.04800 37018 ft 309 kts 104°
2026-05-06 21:54 20.31371 -71.00579 37018 ft 308 kts 102°
2026-05-06 21:55 20.29636 -70.96382 37018 ft 310 kts 103°
2026-05-06 21:55 20.27871 -70.92212 37018 ft 311 kts 104°
2026-05-06 21:56 20.26091 -70.88021 37024 ft 311 kts 104°
2026-05-06 21:56 20.24356 -70.83807 37021 ft 311 kts 103°
2026-05-06 21:57 20.22632 -70.79590 37018 ft 311 kts 103°
2026-05-06 21:57 19.97269 -69.87498 37040 ft 305 kts 92°
2026-05-06 21:58 19.86279 -69.61572 37044 ft 29130 kts 114°
2026-05-06 21:58 19.10663 -67.65922 37123 ft 29130 kts 114°
2026-05-06 21:58 18.65562 -66.41128 37100 ft 0 kts 114°
2026-05-06 21:58 18.64592 -66.39199 36085 ft 346 kts 122°
2026-05-06 21:59 18.63408 -66.36934 35443 ft 358 kts 116°